Flag for Germany Weather past 2 weeks in Frankfurt, Hesse, Germany

41 °F

Passing clouds.

Feels Like: 38 °F
Forecast: 30 / 39 °F
Wind: 5 mph from West

Location: Frankfurt-M-Flughafen Airport

Current Time: Nov 26, 2015 at 4:42:03 AM

Latest Report: Nov 26, 2015 at 4:20 AM

Visibility: N/A

Pressure: 29.83 "Hg

Humidity: 87%

Dew point: 37 °F

Location of FrankfurtLocation

Historic Weather in Frankfurt — Graph


Frankfurt temperature yesterday

Maximum temperature yesterday: 41 °F (at 1:50 PM)
Minimum temperature yesterday: 32 °F (at 12:20 AM)
Average temperature yesterday: 37 °F

Past Weeks' High & Low Weather Summary

High61 °F (Nov 18, 12:50 AM)100% (Nov 13, 12:20 AM)30.36 "Hg (Nov 13, 12:20 AM)
Low27 °F (Nov 24, 2:20 AM)51% (Nov 18, 12:50 PM)29.39 "Hg (Nov 21, 2:20 PM)
Average46 °F83%30.00 "Hg
* Reported Nov 11 3:20 AM — Nov 26 3:20 AM, Frankfurt, Weather by CustomWeather, © 2015

Note: Actual official high and low records may vary slightly from our data, if they occured in-between our weather recording intervals... More about our weather records


Frankfurt weather history for previous 24 hours

Time TempWeatherWind HumidityBarometerVisibility
3:20 AM
Thu, Nov 26
39 °FLight rain. Passing clouds.3 mph93%29.83 "HgN/A
2:50 AM39 °FPassing clouds.6 mph93%29.83 "HgN/A
2:20 AM39 °FPartly cloudy.3 mph93%29.80 "HgN/A
1:20 AM39 °FPassing clouds.7 mph87%29.80 "HgN/A
12:50 AM39 °FPassing clouds.7 mph93%29.80 "HgN/A
12:20 AM37 °FPassing clouds.2 mph100%29.77 "HgN/A
11:50 PM
Wed, Nov 25
37 °FPassing clouds.5 mph93%29.77 "HgN/A
11:20 PM37 °FPassing clouds.5 mph93%29.77 "HgN/A
10:50 PM37 °FPassing clouds.3 mph100%29.77 "HgN/A
9:50 PM37 °FPartly cloudy.5 mph100%29.77 "HgN/A
9:20 PM37 °FPartly cloudy.2 mph100%29.77 "HgN/A
8:50 PM37 °FPassing clouds.5 mph100%29.74 "HgN/A
8:20 PM39 °FPassing clouds.5 mph93%29.74 "HgN/A
7:50 PM39 °FSprinkles. Passing clouds.3 mph93%29.74 "HgN/A
7:20 PM39 °FSprinkles. Partly cloudy.2 mph93%29.74 "Hg6 mi
6:50 PM39 °FSprinkles. Passing clouds.5 mph93%29.71 "Hg6 mi
6:20 PM39 °FScattered showers. Partly cloudy.6 mph93%29.71 "Hg6 mi
5:50 PM39 °FPartly cloudy.7 mph93%29.71 "HgN/A
5:20 PM39 °FScattered showers. Passing clouds.8 mph93%29.71 "HgN/A
4:50 PM41 °FSprinkles. Passing clouds.7 mph93%29.71 "HgN/A
4:20 PM41 °FSprinkles. Partly sunny.9 mph93%29.71 "Hg5 mi
3:50 PM41 °FSprinkles. Broken clouds.10 mph93%29.71 "HgN/A
3:20 PM41 °FSprinkles. Broken clouds.10 mph93%29.71 "HgN/A
2:50 PM41 °FBroken clouds.9 mph93%29.71 "HgN/A
2:20 PM41 °FScattered clouds.10 mph93%29.71 "HgN/A
1:50 PM41 °FBroken clouds.7 mph93%29.71 "HgN/A
1:20 PM39 °FPartly sunny.8 mph100%29.71 "HgN/A
12:50 PM39 °FPartly sunny.7 mph93%29.74 "HgN/A
12:20 PM37 °FBroken clouds.8 mph100%29.74 "HgN/A
11:50 AM37 °FLight rain. Partly sunny.8 mph93%29.74 "HgN/A
11:20 AM37 °FLight rain. Partly sunny.8 mph93%29.74 "HgN/A
10:50 AM36 °FLight rain. Partly sunny.7 mph100%29.77 "Hg6 mi
10:20 AM36 °FLight rain. Partly sunny.10 mph93%29.77 "Hg4 mi
9:50 AM34 °FLight rain. Partly sunny.10 mph100%29.77 "Hg4 mi
9:20 AM34 °FLight rain. Partly sunny.12 mph100%29.77 "HgN/A
8:50 AM34 °FLight rain. Partly sunny.10 mph93%29.77 "HgN/A
8:20 AM34 °FLight rain. Partly sunny.9 mph100%29.77 "Hg6 mi
7:50 AM34 °FLight rain. Passing clouds.9 mph93%29.77 "Hg4 mi
7:20 AM34 °FLight rain. Passing clouds.10 mph93%29.77 "Hg4 mi
6:50 AM34 °FLight rain. Passing clouds.12 mph93%29.77 "Hg4 mi
6:20 AM34 °FLight rain. Fog.10 mph93%29.77 "Hg3 mi
5:50 AM34 °FLight rain. Passing clouds.9 mph93%29.77 "Hg3 mi
5:20 AM34 °FLight rain. Passing clouds.12 mph93%29.77 "Hg3 mi
4:20 AM34 °FLight snow. Passing clouds.8 mph93%29.80 "Hg3 mi
Weather by CustomWeather, © 2015

See weather overviewHow to use our weather pages